Osceola, IA (50213)

6:42 AM CST on February 09, 2016 (GMT -0600)
Osceola Municipal | | Change Station
CLOSE
Current Station
Airport
Location: Osceola Municipal,
Elevation: 1109 ft
Nearby Weather Stations

Elev 1109 ft 41.05 °N, 93.69 °W | Updated 7 minutes ago

Overcast
Overcast
12 °F
Feels Like -4 °F
N
15
Wind Variable Wind from NW
Gusts 22 mph

Today
High -- | Low -- °F
--% Chance of Precip.
Yesterday
High -- | Low -- °F
Precip. -- in
Pressure 30.06 in
Visibility 10.0 miles
Clouds Scattered Clouds 1400 ft
Mostly Cloudy 2000 ft
Overcast 5000 ft
Windchill -4 °F
Dew Point 6 °F
Humidity 77%
Rainfall 0.00 in
Snow Depth Not available.
7:17 AM 5:41 PM
New Moon, 1% visible
METAR KI75 091235Z AUTO 32013G19KT 10SM SCT014 BKN020 OVC050 M11/M14 A3006 RMK AO2 T11101143
Pressure 30.06 in
Visibility 10.0 miles
Clouds Scattered Clouds 1400 ft
Mostly Cloudy 2000 ft
Overcast 5000 ft
Windchill -4 °F
Dew Point 6 °F
Humidity 77%
Rainfall 0.00 in
Snow Depth Not available.
7:17 AM 5:41 PM
New Moon, 1% visible
METAR KI75 091235Z AUTO 32013G19KT 10SM SCT014 BKN020 OVC050 M11/M14 A3006 RMK AO2 T11101143

10-Day Weather Forecast

Almanac

Astronomy

Feb. 09, 2016 Rise Set
Actual Time
Civil Twilight
Nautical Twilight
Astronomical Twilight
Moon
Length of Visible Light
Length of Day
Tomorrow will be .
, % of the Moon is Illuminated

Today's Extremes

State Highs State Lows

Community

WunderPhotos

Upload Photos

1,891,589 photos uploaded!

WunderBlog® & News

Nearby

Air Quality

  Air Quality AQ Index Pollutant
Not available.

Snow Depth

Station Depth Elevation

Earthquake Activity

City Distance Mag. Time & Date
Minimum magnitude displayed is 2.5.

Coastal Water Temperatures

Place Temperature

Stations

Nearby Weather Stations

Station Location Temp. Windchill Dew Point Humidity Wind Precip. Elev Updated Type
                   

Watches & Warnings

There are currently no watches in effect.